Theta_e
348 357 366 366 364 362 361 358 360 361 362 363 363 362 363 363 363 362 360 360 362 360 359 359 358 358 356 355 354 351 350 349 349 350 351 349 349 345 341 340 340 336 341
352 358 366 367 364 362 361 360 360 360 362 363 362 362 362 362 362 362 361 360 360 359 358 358 358 357 357 355 354 353 351 349 349 348 348 348 345 343 343 342 342 339 342
353 358 363 366 364 362 362 362 360 360 361 363 362 362 362 362 362 362 362 362 360 359 359 358 358 357 356 356 354 353 351 351 349 348 347 339 338 343 343 344 343 343 342
353 354 360 365 364 362 361 361 360 360 361 362 362 362 361 361 362 361 362 361 360 359 359 359 358 357 356 355 354 353 352 352 350 350 347 344 339 343 344 344 344 343 342
348 353 360 365 364 363 362 361 360 360 360 361 362 362 360 360 361 361 362 363 361 360 359 358 358 357 357 356 355 354 355 355 355 355 351 349 339 343 345 345 345 343 341
347 353 361 364 364 364 363 362 361 360 360 361 361 362 361 360 360 361 362 362 361 360 360 359 358 358 357 356 356 357 357 357 356 347 345 343 342 347 347 347 346 345 343
349 355 357 363 364 364 363 362 362 361 360 360 361 361 360 359 359 359 360 361 361 361 360 360 359 360 359 358 357 358 357 356 350 343 342 342 337 350 349 348 346 344 344
350 351 353 360 362 363 363 363 361 360 360 360 360 360 360 359 358 357 358 359 359 360 360 360 360 359 358 357 357 357 357 355 351 347 343 339 341 351 351 352 347 345 344
349 348 348 351 355 359 361 361 361 361 360 359 358 358 358 358 357 356 356 357 358 359 359 359 359 359 358 357 358 357 357 355 349 349 349 344 347 351 351 352 347 346 345
343 342 343 346 351 352 352 359 360 360 359 359 358 358 357 357 357 357 356 356 359 359 358 358 358 358 358 358 357 357 356 354 345 347 348 344 350 352 353 355 350 348 346
340 336 339 343 343 345 348 352 357 359 359 358 358 358 354 350 348 350 354 356 357 358 357 356 358 358 358 357 348 344 344 338 336 346 346 350 354 354 355 356 354 352 349
334 333 333 338 346 346 349 348 350 350 350 351 350 348 348 345 344 346 349 354 356 357 357 356 357 357 356 343 335 340 335 338 342 346 344 352 355 353 358 358 356 355 352
335 337 333 336 345 340 335 339 345 345 346 346 346 344 343 347 342 343 345 348 348 354 350 352 353 349 340 334 337 335 335 338 338 347 348 353 355 355 359 359 357 356 354
333 333 328 340 342 331 331 339 340 345 347 346 346 345 342 345 338 331 332 332 344 344 346 346 345 338 335 338 338 336 333 330 339 340 343 351 353 357 359 360 357 357 355
329 329 329 333 340 336 333 335 339 341 341 342 346 338 334 333 329 327 328 328 327 334 342 341 339 333 333 334 333 332 332 330 333 336 340 345 350 355 359 358 357 356 354
333 335 337 331 337 337 337 338 338 337 332 331 330 331 332 328 326 323 326 321 321 322 326 334 338 331 334 334 331 331 334 332 332 336 337 334 348 352 355 357 354 353 355
333 332 335 334 332 333 330 330 330 330 330 327 325 327 327 323 320 323 321 317 318 321 323 322 322 325 327 333 333 335 333 331 329 331 335 340 344 351 354 354 349 352 355
327 327 327 331 329 328 327 327 327 327 324 327 326 325 325 325 320 322 319 317 321 323 321 319 319 317 317 318 318 320 322 326 329 328 331 334 339 342 348 352 350 352 352
327 326 326 327 327 326 325 326 327 327 328 327 324 325 322 326 324 323 321 322 322 323 322 320 318 319 317 317 319 318 318 322 323 329 329 332 336 339 343 351 349 347 348
326 326 326 325 325 323 323 321 321 322 323 326 325 325 325 325 326 323 325 324 324 323 322 321 319 320 318 316 319 318 316 317 320 329 334 336 334 333 334 339 338 342 346
324 324 323 322 323 319 318 316 316 316 319 322 324 327 324 325 325 324 325 324 325 322 320 320 320 319 316 317 314 312 312 314 318 325 330 332 330 328 330 331 333 334 337
322 322 322 320 321 317 317 318 317 317 319 324 325 325 325 328 326 326 324 323 323 321 321 320 319 318 317 317 312 308 305 310 316 320 325 327 324 326 327 330 329 330 331
321 320 318 316 318 318 318 315 314 312 313 314 316 320 324 328 327 326 326 325 324 323 321 321 323 319 315 315 315 309 306 304 308 313 318 324 321 322 324 324 326 328 333
312 317 316 316 316 318 315 312 311 308 308 310 312 314 317 322 325 326 327 324 324 324 322 319 323 322 317 316 317 317 315 311 306 306 315 317 324 322 319 320 321 326 331
310 314 316 315 312 315 314 311 311 309 309 310 311 312 310 312 316 318 317 316 315 315 317 319 319 321 319 316 315 314 312 309 309 309 306 308 321 320 319 321 322 323 326
306 307 307 309 312 312 312 311 310 308 307 309 309 308 308 308 311 314 316 314 313 312 313 313 314 314 315 315 315 313 312 309 306 306 303 303 307 319 320 320 320 321 325
Wind_Speed
2 4 7 10 11 12 13 13 12 11 11 11 12 13 12 12 13 13 13 12 11 12 12 12 11 11 12 13 13 13 13 12 11 12 12 12 13 13 13 14 13 9 14
8 6 10 12 14 14 14 13 12 11 11 10 10 10 10 10 11 11 10 11 11 11 11 10 9 9 9 10 10 10 10 10 9 10 10 9 9 11 14 13 13 10 13
9 6 8 12 13 13 14 14 12 11 11 10 9 9 8 7 9 9 8 7 8 9 9 9 8 7 6 7 8 7 6 6 5 6 10 4 3 7 11 13 12 12 12
9 5 6 10 10 11 12 12 13 12 11 11 10 8 7 6 6 7 7 7 6 6 7 8 7 6 4 4 4 4 3 1 1 3 3 3 2 5 7 13 12 11 10
5 5 9 11 9 9 9 9 11 10 10 11 10 9 7 6 4 4 5 6 7 6 5 5 6 5 3 1 2 2 3 3 4 5 4 5 5 8 9 11 13 12 9
7 6 6 10 12 10 9 8 8 9 9 8 9 9 9 8 7 5 5 6 6 5 5 5 4 4 3 1 2 5 6 7 8 3 5 7 9 12 13 12 14 14 12
7 6 6 7 7 7 8 7 5 4 5 6 6 6 6 7 7 6 5 4 4 5 5 3 2 3 2 2 2 4 8 11 6 2 6 7 7 15 16 15 15 15 16
11 8 8 11 11 8 5 5 6 5 3 2 3 4 4 3 4 5 5 4 4 5 5 3 5 5 3 4 5 5 6 9 8 3 3 4 6 13 17 14 14 15 15
8 8 7 6 6 6 3 0 4 4 4 3 3 4 4 4 5 6 7 8 7 7 6 7 6 5 5 6 7 8 8 7 4 4 4 3 7 15 16 15 15 15 15
3 2 7 7 7 6 1 2 3 4 6 7 8 8 8 7 8 8 10 10 10 9 9 7 6 7 8 7 8 9 11 6 3 5 3 3 9 16 19 17 17 16 16
5 3 6 5 7 3 6 5 5 8 8 8 7 8 7 4 5 7 9 11 12 12 10 9 10 10 9 9 7 4 4 2 4 3 3 5 9 14 19 18 16 17 17
2 5 3 4 5 6 2 7 6 4 4 4 5 6 4 5 5 6 9 12 15 14 10 12 11 11 9 3 3 6 3 3 3 1 2 9 9 7 21 20 22 19 17
1 4 6 7 1 1 5 2 2 0 3 3 6 5 5 3 4 3 4 5 4 8 4 6 5 4 3 3 5 4 3 4 3 2 2 11 13 10 13 22 19 17 19
8 5 6 5 6 7 4 4 4 3 3 4 5 5 4 2 2 1 2 3 1 1 4 5 3 4 4 6 6 6 6 4 3 3 4 12 12 11 19 21 17 18 19
7 3 5 8 7 7 7 6 5 5 4 4 4 1 1 0 1 2 2 3 3 2 1 3 3 3 4 5 4 5 7 6 6 5 3 11 13 16 14 14 15 16 16
7 7 4 4 6 3 4 7 5 5 5 2 3 2 1 2 3 3 2 3 2 3 2 2 3 4 4 4 5 5 6 6 8 7 7 5 11 15 13 11 10 13 14
6 7 7 3 3 3 3 5 5 5 5 3 2 2 0 2 3 3 2 2 2 3 5 4 4 3 3 3 5 5 4 6 6 6 7 6 7 9 11 13 10 17 14
8 8 6 6 7 7 6 6 6 5 4 4 4 4 3 1 2 3 1 2 2 3 3 3 2 1 2 2 3 4 4 5 6 6 5 5 4 2 1 9 5 7 8
9 8 8 7 7 6 6 5 6 7 8 8 8 5 10 7 3 3 1 2 4 2 3 2 3 2 3 4 5 5 4 3 3 5 6 4 5 2 3 7 11 8 2
9 8 8 6 8 6 4 3 3 4 5 5 7 7 10 9 11 8 5 4 3 3 3 3 2 2 2 3 4 4 5 4 2 5 5 5 5 6 7 6 4 4 11
6 8 9 8 6 4 1 2 3 2 3 3 3 6 6 7 9 6 6 8 6 3 1 1 1 1 2 2 3 5 3 3 3 4 3 4 5 5 5 4 4 3 4
8 8 6 5 5 2 2 1 1 2 2 2 1 0 2 1 3 5 7 7 9 7 7 4 1 1 1 1 1 0 5 6 3 3 3 3 3 3 4 4 3 4 3
8 6 4 5 6 5 6 4 2 1 1 0 2 2 3 2 3 4 3 8 6 6 8 4 3 4 2 2 2 2 2 3 4 4 2 3 4 4 3 5 5 5 5
5 6 6 8 8 6 5 3 6 5 4 4 3 4 5 6 6 5 7 7 7 8 10 4 3 4 3 2 2 3 2 3 2 5 3 3 4 5 5 4 5 6 5
6 7 8 5 3 4 4 4 5 5 4 3 3 6 6 6 6 5 3 2 0 2 3 3 2 1 1 2 2 2 2 0 1 2 3 3 3 4 3 4 4 5 5
2 4 5 5 4 6 5 6 7 7 7 5 5 5 5 4 3 3 5 5 5 3 3 3 2 2 1 2 1 2 2 3 3 1 2 3 2 3 3 4 4 4 3
Wind_Direction
186 164 139 134 128 125 120 117 112 105 92 82 86 93 91 92 96 100 100 95 92 96 91 86 82 80 83 87 90 92 93 92 88 86 82 81 98 93 93 94 91 86 86
146 167 146 145 142 138 131 126 121 115 104 90 83 77 85 97 101 101 103 111 112 109 107 100 88 81 81 88 89 94 98 97 97 92 86 76 86 96 102 98 95 93 90
147 156 143 143 143 141 137 133 129 124 120 111 99 94 94 93 106 107 110 111 116 123 123 119 116 110 95 88 90 90 93 109 118 116 101 96 91 104 111 107 102 99 95
138 125 114 129 134 135 137 136 135 137 135 131 126 118 111 112 116 119 121 125 127 131 133 134 130 121 101 76 71 72 76 86 206 232 260 189 177 145 138 125 118 112 110
106 129 135 124 123 129 135 137 141 143 147 143 148 140 137 138 141 141 141 147 153 152 151 145 137 131 125 76 353 350 322 297 281 278 257 238 207 179 178 155 138 131 129
90 75 104 122 131 134 137 143 146 150 153 152 160 158 166 165 171 181 175 177 175 180 176 169 154 153 157 191 311 315 312 310 312 312 291 249 204 185 191 184 154 159 151
97 81 76 86 108 120 130 134 136 148 158 165 163 175 184 186 187 198 214 220 217 207 210 188 187 215 224 242 282 299 310 320 325 3 327 327 173 182 195 198 171 164 162
70 64 56 47 31 31 85 124 147 162 172 190 198 212 220 225 233 234 247 252 267 273 263 243 226 233 255 268 276 286 298 313 324 337 355 313 243 206 200 205 188 176 177
65 101 107 99 73 59 17 146 171 171 167 187 215 235 254 260 260 257 255 250 249 252 257 261 270 274 273 279 282 273 264 287 305 267 283 274 238 219 216 213 207 192 188
339 5 131 134 139 141 143 273 250 219 206 203 204 205 203 218 236 246 251 253 244 243 246 252 256 251 251 256 271 283 280 280 192 239 235 221 243 217 217 216 214 209 199
188 141 324 3 77 77 164 187 220 221 219 225 228 221 226 216 238 257 261 258 256 247 242 238 237 239 235 238 212 268 310 297 265 207 214 239 235 218 220 217 224 218 210
40 47 8 279 53 124 194 169 187 239 240 221 217 237 241 230 239 253 262 262 253 247 229 229 229 233 234 233 255 262 289 288 252 202 273 277 270 266 226 202 219 220 220
66 47 14 325 140 187 226 116 44 30 258 268 248 219 236 267 258 262 268 277 229 241 211 223 224 233 212 232 264 263 271 240 267 260 247 284 277 276 220 218 220 214 219
56 32 8 13 351 311 330 27 358 338 292 242 236 253 250 230 266 319 298 336 337 189 202 220 210 198 246 248 255 276 260 216 242 281 229 261 280 246 209 214 224 219 220
97 99 30 13 350 326 347 339 324 294 275 263 247 318 273 35 138 48 23 47 22 29 184 235 232 257 262 267 264 273 305 309 314 280 252 267 255 243 243 237 235 223 231
27 7 79 70 19 40 308 305 297 285 324 9 94 69 10 65 61 38 59 40 38 15 6 269 240 242 259 276 293 287 293 294 294 286 280 263 248 241 231 245 261 292 250
70 54 54 27 13 19 351 309 339 347 336 333 337 196 263 22 71 68 61 32 27 20 79 56 23 15 359 314 302 304 287 285 288 297 294 270 265 257 219 212 223 237 237
112 103 98 77 46 25 14 355 355 357 356 337 339 312 297 288 86 55 41 347 43 75 65 58 58 1 2 352 302 288 300 308 308 303 293 282 344 52 342 202 195 245 238
129 119 96 81 66 53 33 22 28 14 21 14 2 341 353 336 347 92 135 354 23 51 60 39 34 49 336 336 319 322 322 317 346 330 327 356 37 53 139 118 154 178 225
142 141 141 141 133 120 116 88 56 54 32 23 22 44 24 20 12 347 6 37 51 63 33 28 26 331 286 304 312 317 310 319 4 19 52 60 45 32 16 26 24 24 46
154 153 161 155 174 143 101 106 79 34 1 43 16 15 23 7 1 6 358 347 352 357 339 322 355 326 308 336 350 326 316 317 84 91 79 57 47 47 48 21 29 8 17
177 186 174 144 138 77 88 281 285 187 177 214 268 334 348 209 326 348 327 321 323 326 317 307 358 333 266 354 311 322 337 331 3 51 115 111 91 48 52 56 33 41 36
185 189 149 154 164 182 178 167 178 315 29 152 238 215 258 247 158 161 270 278 284 297 273 228 246 177 241 282 232 182 337 283 326 347 17 56 86 72 58 32 13 22 48
222 147 171 190 194 210 197 194 184 191 215 222 203 208 230 228 218 236 228 232 229 252 261 280 230 226 138 248 307 238 189 185 264 331 336 41 63 59 38 24 21 20 30
130 167 195 200 231 238 249 246 222 216 233 235 231 234 243 229 226 244 262 359 320 294 326 310 332 348 252 51 192 260 316 114 253 185 258 322 48 60 42 37 30 17 32
158 139 141 164 194 233 260 263 247 248 246 232 243 246 255 266 272 202 169 164 151 113 11 17 32 1 261 244 251 210 196 215 234 174 262 264 170 58 34 28 39 19 55